Location: Wildcat Hills Observatory
(41.6350°N, 103.6812°W)
Time: 10:11:39
(UTC-06:00)

Lacrosse 5 - Pass Details

Date: 23 June 2018
Orbit: 713 x 726 km, 57.0° (Epoch: 17 September)

Event Time Altitude Azimuth Distance (km) Brightness Sun altitude
Rises 21:47:55 0° 247° (WSW) 3,106 5.4 -11.6°
Reaches altitude 10° 21:50:25 10° 255° (WSW) 2,190 4.7 -11.9°
Maximum altitude 21:55:09 40° 325° (NW) 1,048 3.4 -12.5°
Drops below altitude 10° 21:59:56 10° 35° (NE) 2,206 4.6 -13.1°
Sets 22:02:28 0° 43° (NE) 3,131 5.3 -13.4°
